Flag for Germany Weather past 2 weeks in Viersen, North Rhine-Westphalia, Germany

Now
66 °F

Clear.


Feels Like: 66 °F
Forecast: 48 / 65 °F
Wind: 5 mph from Northwest

Location: Monchengladbach Airport

Current Time: May 22, 2015 at 8:41:27 PM

Latest Report: May 22, 2015 at 8:20 PM


Visibility: 10 mi

Pressure: 30.18 "Hg

Humidity: 46%

Dew point: 45 °F

Location of ViersenLocation

Historic Weather in Viersen — Graph

°F

Viersen temperature yesterday

Maximum temperature yesterday: 63 °F (at 2:20 PM)
Minimum temperature yesterday: 41 °F (at 6:20 AM)
Average temperature yesterday: 57 °F

Past Weeks' High & Low Weather Summary

 TemperatureHumidityPressure
High81 °F (May 11, 4:50 PM)100% (May 16, 2:50 PM)30.33 "Hg (May 16, 2:50 PM)
Low41 °F (May 21, 6:20 AM)30% (May 11, 4:50 PM)29.65 "Hg (May 18, 6:20 PM)
Average61 °F57%30.07 "Hg
* Reported May 7 7:20 PM — May 22 7:20 PM, Viersen, Weather by CustomWeather, © 2015

Note: Actual official high and low records may vary slightly from our data, if they occured in-between our weather recording intervals... More about our weather records

Advertising

Viersen weather history for previous 24 hours

 ConditionsComfort  
Time TempWeatherWind HumidityBarometerVisibility
7:20 PM
Fri, May 22
66 °FClear.6 mph40%30.18 "Hg10 mi
6:50 PM70 °FClear.3 mph38%30.18 "Hg10 mi
6:20 PM68 °FClear.3 mph38%30.18 "Hg10 mi
5:50 PM68 °FClear.3 mph40%30.21 "Hg10 mi
5:20 PM70 °FClear.6 mph38%30.21 "Hg10 mi
4:50 PM70 °FClear.3 mph38%30.21 "Hg10 mi
4:20 PM68 °FClear.6 mph40%30.21 "Hg10 mi
3:50 PM68 °FClear.5 mph43%30.24 "Hg10 mi
3:20 PM66 °FClear.2 mph46%30.24 "Hg10 mi
2:50 PM66 °FClear.2 mph43%30.24 "Hg10 mi
2:20 PM66 °FClear.2 mph43%30.27 "Hg10 mi
1:50 PM66 °FClear.3 mph43%30.27 "Hg10 mi
1:20 PM64 °FSunny.5 mph46%30.27 "Hg10 mi
12:50 PM66 °FSunny.3 mph43%30.30 "Hg10 mi
12:20 PM64 °FSunny.6 mph46%30.30 "Hg10 mi
11:50 AM63 °FSunny.6 mph45%30.30 "Hg10 mi
11:20 AM63 °FSunny.6 mph49%30.30 "Hg10 mi
10:50 AM63 °FSunny.3 mph49%30.30 "Hg10 mi
10:20 AM61 °FSunny.3 mph52%30.33 "Hg10 mi
9:50 AM61 °FSunny.2 mph55%30.33 "Hg10 mi
9:20 AM59 °FSunny.3 mph59%30.33 "Hg10 mi
8:50 AM59 °FSunny.3 mph59%30.33 "Hg10 mi
8:20 AM57 °FSunny.2 mph63%30.33 "Hg10 mi
7:50 AM55 °FSunny.3 mph72%30.33 "Hg10 mi
7:20 AM52 °FSunny.1 mph88%30.33 "Hg10 mi
8:20 PM
Thu, May 21
57 °FClear.1 mph67%30.27 "Hg10 mi
Weather by CustomWeather, © 2015

See weather overviewHow to use our weather pages